Voltar ao catálogo

STARLINK-35847

AtivoComunicaçõesVLEO
NORAD 66621·PAYLOAD·🇺🇸 United States

Lançado Nov 23, 2025 de Vandenberg Space Force Base

Loading…

Próximas Passagens (próximas 24 horas)

TLE

AtualizadoSource: CelesTrak SupGP

Época: Sep 15, 2026, 03:56 UTC

1 66621C 25271E   26258.16437500  .00062556  00000+0  18474-2 0  2584
2 66621  53.1579 338.7690 0001136  95.0760 176.3898 15.34373934    12

Acompanhe STARLINK-35847 em tempo real com AllMySat

Download on the App Store